Alexandria, MN

5:32 PM CDT on May 28, 2017 (GMT -0500)
Chandler

Weather History for KAXN - January, 2013

Change the Weather History Date:

Sunday, January 6, 2013

  Actual Average Record
Temperature  
Mean Temperature 11 °F -  
Max Temperature 19 °F 15 °F 43 °F (2012)
Min Temperature 5 °F -2 °F -28 °F (1951)
Degree Days  
Heating Degree Days 54    
Moisture  
Dew Point 10 °F    
Average Humidity 87    
Maximum Humidity 93    
Minimum Humidity 78    
Precipitation  
Precipitation 0.00 in - - ()
Sea Level Pressure  
Sea Level Pressure 30.14 in    
Wind  
Wind Speed 7 mph (SSW)    
Max Wind Speed 17 mph    
Max Gust Speed -    
Visibility 5 miles    
Events Fog , Snow    
Averages and records for this station are not official NWS values.
T = Trace of Precipitation, MM = Missing Value Source: NWS Daily Summary

Daily Weather History Graph

Daily Weather History Graph

Search for Another Location

Airport or City:

Trip Planner

Search our weather history database for the weather conditions in past years. The results will help you decide how hot, cold, wet, or windy it might be!

Date:

Astronomy

Jan. 06, 2013 Rise Set
Actual Time 8:02 AM CST 4:52 PM CST
Civil Twilight 7:28 AM CST 5:26 PM CST
Nautical Twilight 6:51 AM CST 6:04 PM CST
Astronomical Twilight 6:14 AM CST 6:40 PM CST
Moon 2:10 AM CST (1/6) 12:26 PM CST (1/6)
Length of Visible Light 9h 58m
Length of Day
8h 50m
Waning Crescent, 33% of the Moon is Illuminated
Jan 6
Waning Crescent
Jan 11
New
Jan 18
First Quarter
Jan 26
Full
Feb 3
Last Quarter

Hourly Weather History & Observations

Time (CST) Temp. Windchill Dew Point Humidity Pressure Visibility Wind Dir Wind Speed Gust Speed Precip Events Conditions
12:53 AM 5.0 °F -8.1 °F -0.0 °F 80% 30.16 in 10.0 mi NW 8.1 mph - N/A   Clear
1:22 AM 5.0 °F -8.1 °F 1.4 °F 85% 30.07 in 10.0 mi NW 8.1 mph - N/A   Scattered Clouds
1:31 AM 6.8 °F -6.9 °F 1.4 °F 79% 30.07 in 10.0 mi NW 9.2 mph - N/A   Mostly Cloudy
1:53 AM 8.1 °F -4.3 °F 5.0 °F 87% 30.17 in 10.0 mi NW 8.1 mph - N/A   Overcast
2:53 AM 10.0 °F 0.4 °F 7.0 °F 87% 30.19 in 10.0 mi NNW 5.8 mph - N/A   Overcast
3:53 AM 10.9 °F 0.2 °F 7.0 °F 84% 30.19 in 10.0 mi West 6.9 mph - N/A   Overcast
4:16 AM 12.2 °F -0.2 °F 8.6 °F 85% 30.08 in 10.0 mi West 9.2 mph - N/A   Overcast
4:53 AM 12.9 °F 5.2 °F 10.9 °F 92% 30.19 in 10.0 mi NNW 4.6 mph - N/A   Overcast
5:41 AM 12.2 °F 2.9 °F 10.4 °F 92% 30.12 in 5.0 mi NNW 5.8 mph - N/A   Overcast
5:53 AM 14.0 °F 2.0 °F 10.9 °F 88% 30.22 in 4.0 mi NW 9.2 mph - N/A   Overcast
6:27 AM 14.0 °F 2.9 °F 10.4 °F 86% 30.13 in 3.0 mi NW 8.1 mph - N/A   Overcast
6:53 AM 14.0 °F 5.1 °F 12.0 °F 92% 30.23 in 6.0 mi NNW 5.8 mph - N/A   Overcast
7:53 AM 14.0 °F 6.5 °F 10.9 °F 88% 30.24 in 3.0 mi North 4.6 mph - N/A   Overcast
8:01 AM 14.0 °F - 12.2 °F 93% 30.14 in 1.8 mi Calm Calm - N/A   Overcast
8:13 AM 12.2 °F - 10.4 °F 92% 30.14 in 1.2 mi Calm Calm - N/A   Overcast
8:32 AM 14.0 °F - 10.4 °F 86% 30.14 in 1.2 mi Calm Calm - N/A   Overcast
8:43 AM 14.0 °F - 10.4 °F 86% 30.14 in 0.5 mi Calm Calm - N/A Fog Light Freezing Fog
8:53 AM 14.0 °F - 10.9 °F 88% 30.25 in 0.5 mi Calm Calm - N/A Fog Light Freezing Fog
9:03 AM 12.2 °F - 10.4 °F 92% 30.15 in 0.8 mi Calm Calm - N/A   Overcast
9:10 AM 14.0 °F 8.2 °F 10.4 °F 86% 30.16 in 1.0 mi NW 3.5 mph - N/A   Overcast
9:29 AM 14.0 °F - 10.4 °F 86% 30.16 in 0.8 mi Calm Calm - N/A   Overcast
9:40 AM 14.0 °F - 12.2 °F 93% 30.15 in 1.0 mi Calm Calm - 0.00 in Snow Light Snow
9:51 AM 14.0 °F - 12.2 °F 93% 30.15 in 2.0 mi Calm Calm - 0.00 in Snow Light Snow
9:53 AM 14.0 °F - 12.0 °F 92% 30.25 in 2.5 mi Calm Calm - 0.00 in   Overcast
10:48 AM 14.0 °F 8.2 °F 12.2 °F 93% 30.18 in 3.0 mi South 3.5 mph - 0.00 in   Overcast
10:53 AM 15.1 °F 6.4 °F 12.0 °F 88% 30.28 in 3.0 mi SW 5.8 mph - 0.00 in   Overcast
11:53 AM 15.1 °F 6.4 °F 12.9 °F 91% 30.26 in 5.0 mi SSW 5.8 mph - N/A   Overcast
12:30 PM 15.8 °F 4.2 °F 12.2 °F 86% 30.13 in 5.0 mi SSW 9.2 mph - N/A   Overcast
12:53 PM 15.1 °F 4.2 °F 10.9 °F 84% 30.24 in 4.0 mi South 8.1 mph - N/A   Overcast
1:53 PM 15.1 °F 5.2 °F 10.9 °F 84% 30.20 in 5.0 mi South 6.9 mph - N/A   Overcast
2:43 PM 15.8 °F 5.1 °F 10.4 °F 79% 30.10 in 7.0 mi South 8.1 mph - N/A   Scattered Clouds
2:53 PM 15.1 °F 2.5 °F 10.0 °F 80% 30.19 in 6.0 mi South 10.4 mph - N/A   Haze
3:53 PM 12.9 °F 0.7 °F 9.0 °F 84% 30.20 in 7.0 mi SSE 9.2 mph - N/A   Clear
4:08 PM 12.2 °F 1.7 °F 10.4 °F 92% 30.09 in 5.0 mi SSE 6.9 mph - N/A   Scattered Clouds
4:21 PM 12.2 °F 0.7 °F 8.6 °F 85% 30.09 in 4.0 mi SSE 8.1 mph - N/A   Mostly Cloudy
4:53 PM 12.0 °F 0.5 °F 9.0 °F 88% 30.17 in 5.0 mi SSE 8.1 mph - N/A   Mostly Cloudy
5:03 PM 10.4 °F -2.4 °F 8.6 °F 92% 30.07 in 5.0 mi SSE 9.2 mph - N/A   Scattered Clouds
5:53 PM 10.0 °F -3.7 °F 6.1 °F 84% 30.15 in 8.0 mi SSE 10.4 mph - N/A   Clear
6:53 PM 10.0 °F -5.9 °F 6.1 °F 84% 30.11 in 8.0 mi SSE 13.8 mph - N/A   Clear
7:53 PM 12.0 °F -4.0 °F 7.0 °F 80% 30.05 in 7.0 mi SSE 15.0 mph - N/A   Clear
8:53 PM 12.9 °F -2.2 °F 9.0 °F 84% 30.00 in 9.0 mi SE 13.8 mph - N/A   Clear
9:53 PM 14.0 °F -1.4 °F 10.0 °F 84% 29.96 in 9.0 mi SSE 15.0 mph - N/A   Clear
10:53 PM 17.1 °F 3.0 °F 12.0 °F 81% 29.92 in 10.0 mi South 13.8 mph - N/A   Clear
11:53 PM 19.9 °F 5.2 °F 14.0 °F 78% 29.90 in 10.0 mi South 17.3 mph - N/A   Clear